This is the latest recevied weather packets stored in our database for station/object F4FEB-13. If no packets are shown the sender has not sent any weather packets the latest 10 day(s).
| Time | Temp. | Humidity | Pressure | Rain* | Wind** | Luminosity | Snow |
|---|---|---|---|---|---|---|---|
| 1777547074 | 17.22° C | 45% | 1019.8 hPa | 0 mm | - | - | - |
| 1777546778 | 17.22° C | 43% | 1019.9 hPa | 0 mm | - | - | - |
| 1777546774 | 17.22° C | 43% | 1019.9 hPa | 0 mm | - | - | - |
| 1777546474 | 16.67° C | 42% | 1019.9 hPa | 0 mm | - | - | - |
| 1777546174 | 17.22° C | 42% | 1019.9 hPa | 0 mm | - | - | - |
| 1777545874 | 17.78° C | 43% | 1019.9 hPa | 0 mm | - | - | - |
| 1777545574 | 17.78° C | 41% | 1019.8 hPa | 0 mm | - | - | - |
| 1777545274 | 17.22° C | 42% | 1019.9 hPa | 0 mm | - | - | - |
| 1777544974 | 17.22° C | 42% | 1020 hPa | 0 mm | - | - | - |
| 1777544674 | 17.22° C | 43% | 1020 hPa | 0 mm | - | - | - |
| 1777544375 | 16.67° C | 44% | 1020 hPa | 0 mm | - | - | - |
| 1777544074 | 17.22° C | 42% | 1020 hPa | 0 mm | - | - | - |
| 1777543774 | 16.67° C | 43% | 1020 hPa | 0 mm | - | - | - |
| 1777543474 | 16.67° C | 40% | 1020 hPa | 0 mm | - | - | - |
| 1777543175 | 16.11° C | 41% | 1020 hPa | 0 mm | - | - | - |
| 1777542874 | 15.56° C | 43% | 1020 hPa | 0 mm | - | - | - |
| 1777542575 | 15.56° C | 41% | 1019.8 hPa | 0 mm | - | - | - |
| 1777542274 | 16.11° C | 42% | 1019.9 hPa | 0 mm | - | - | - |
| 1777541975 | 15.56° C | 43% | 1020 hPa | 0 mm | - | - | - |
| 1777541676 | 15.56° C | 45% | 1020 hPa | 0 mm | - | - | - |
| 1777541675 | 15.56° C | 45% | 1020 hPa | 0 mm | - | - | - |
| 1777541375 | 15.56° C | 44% | 1020.1 hPa | 0 mm | - | - | - |
| 1777541075 | 15.56° C | 41% | 1020.1 hPa | 0 mm | - | - | - |
| 1777540775 | 16.11° C | 43% | 1020.1 hPa | 0 mm | - | - | - |
| 1777540475 | 15.56° C | 41% | 1020.1 hPa | 0 mm | - | - | - |
* Rain latest hour (hover to see other rain measurements)
** Current wind speed in m/s (hover to see current wind gust speed)